GW4795 Weather Reports


time (UTC)temp
F
wind
direction
speed
knots
gust
knots
rain 1hr
in
rain 24hr
in
rain mn
in
humidity
%
barometer
mb
20260902194508 69 50 0.9 7.0 0.00 0.00 0.00 56 1005.2
20260902194008 69 77 0.9 7.8 0.00 0.00 0.00 56 1005.2
20260902193505 69 155 2.6 7.0 0.00 0.00 0.00 55 1005.2
20260902193012 69 23 0.9 3.5 0.00 0.00 0.00 57 1005.3
20260902192503 69 55 1.7 7.8 0.00 0.00 0.00 57 1005.4
20260902192007 69 70 3.5 7.8 0.00 0.00 0.00 55 1005.5
20260902191513 69 98 2.6 7.8 0.00 0.00 0.00 57 1005.6
20260902191012 69 102 2.6 7.8 0.00 0.00 0.00 56 1005.6
20260902190510 69 129 2.6 7.0 0.00 0.00 0.00 57 1005.7
20260902190024 69 159 1.7 7.0 0.00 0.00 0.00 58 1005.6
20260902185512 69 120 2.6 7.0 0.00 0.00 0.00 57 1005.7
20260902185012 69 89 1.7 7.0 0.00 0.00 0.00 57 1005.8
20260902184504 69 210 1.7 6.1 0.00 0.00 0.00 57 1005.9
20260902184003 69 11 2.6 6.1 0.00 0.00 0.00 57 1006.0
20260902183504 69 138 1.7 5.2 0.00 0.00 0.00 57 1006.0
20260902183006 69 150 1.7 5.2 0.00 0.00 0.00 58 1006.1
20260902182503 69 141 1.7 6.1 0.00 0.00 0.00 57 1006.1
20260902182004 69 67 1.7 7.8 0.00 0.00 0.00 57 1006.1
20260902181513 69 123 2.6 8.7 0.00 0.00 0.00 59 1006.1
20260902181007 69 96 2.6 10.4 0.00 0.00 0.00 59 1006.1
20260902180508 68 143 2.6 10.4 0.00 0.00 0.00 61 1006.2
20260902180021 68 65 2.6 6.1 0.00 0.00 0.00 61 1006.2
20260902175508 68 105 1.7 7.8 0.00 0.00 0.00 60 1006.3
20260902175009 68 94 3.5 8.7 0.00 0.00 0.00 60 1006.3
20260902174532 68 61 2.6 8.7 0.00 0.00 0.00 60 1006.3
20260902174014 69 115 2.6 8.7 0.00 0.00 0.00 60 1006.3
20260902173512 69 107 1.7 8.7 0.00 0.00 0.00 61 1006.3
20260902173016 68 252 0.0 7.8 0.00 0.00 0.00 62 1006.2
20260902172505 68 87 3.5 7.8 0.00 0.00 0.00 62 1006.4
20260902172003 68 58 1.7 8.7 0.00 0.00 0.00 62 1006.5
20260902171509 68 57 2.6 8.7 0.00 0.00 0.00 62 1006.5
20260902171006 68 96 3.5 8.7 0.00 0.00 0.00 62 1006.5
20260902170510 68 123 0.9 7.0 0.00 0.00 0.00 63 1006.5
20260902170018 68 84 3.5 7.0 0.00 0.00 0.00 64 1006.6
20260902165508 67 67 1.7 7.0 0.00 0.00 0.00 65 1006.6
20260902165011 67 131 0.9 8.7 0.00 0.00 0.00 67 1006.7
20260902164527 66 69 2.6 8.7 0.00 0.00 0.00 68 1006.7
20260902164012 65 57 0.9 7.8 0.00 0.00 0.00 72 1006.8
20260902163513 64 51 1.7 7.8 0.00 0.00 0.00 72 1006.8
20260902163027 64 93 1.7 6.1 0.00 0.00 0.00 77 1006.9
20260902162514 64 121 2.6 6.1 0.00 0.00 0.00 76 1007.0
20260902162005 63 74 1.7 6.1 0.00 0.00 0.00 78 1007.0
20260902161526 63 36 1.7 3.5 0.00 0.00 0.00 80 1007.1
20260902161004 62 128 1.7 6.1 0.00 0.00 0.00 81 1007.1
20260902160504 62 155 2.6 6.1 0.00 0.00 0.00 84 1007.2
20260902160013 61 116 0.9 2.6 0.00 0.00 0.00 85 1007.3
20260902155509 61 117 0.9 1.7 0.00 0.00 0.00 86 1007.3
20260902155011 60 124 0.9 2.6 0.00 0.00 0.00 87 1007.3
20260902154524 59 48 0.9 2.6 0.00 0.00 0.00 89 1007.3
20260902154012 59 122 0.0 2.6 0.00 0.00 0.00 89 1007.5
20260902153513 59 79 0.9 2.6 0.00 0.00 0.00 89 1007.5
20260902153026 59 94 0.9 2.6 0.00 0.00 0.00 89 1007.5
20260902152511 59 119 0.0 2.6 0.00 0.00 0.00 89 1007.6
20260902152013 59 78 0.9 2.6 0.00 0.00 0.00 89 1007.7
20260902151530 59 68 0.9 2.6 0.00 0.00 0.00 89 1007.7
20260902151016 58 88 0.9 2.6 0.00 0.00 0.00 90 1007.8
20260902150503 58 92 0.9 3.5 0.00 0.00 0.00 90 1007.9
20260902150012 58 82 1.7 3.5 0.00 0.00 0.00 90 1007.9
20260902145507 58 71 1.7 4.3 0.00 0.00 0.00 90 1008.1
20260902145009 58 119 0.9 5.2 0.00 0.00 0.00 91 1008.1
20260902144518 58 81 1.7 5.2 0.00 0.00 0.00 91 1008.1
20260902144008 58 60 0.9 2.6 0.00 0.00 0.00 91 1008.2
20260902143512 58 110 0.9 1.7 0.00 0.00 0.00 92 1008.2
20260902143027 57 133 0.9 1.7 0.00 0.00 0.00 91 1008.2
20260902142512 57 96 0.9 3.5 0.00 0.00 0.00 91 1008.2
20260902142012 57 125 0.9 3.5 0.00 0.00 0.00 91 1008.3
20260902141528 57 68 0.9 2.6 0.00 0.00 0.00 91 1008.2
20260902141015 57 121 0.9 2.6 0.00 0.00 0.00 91 1008.3
20260902140516 57 102 0.0 2.6 0.00 0.00 0.00 91 1008.2
20260902140038 57 96 0.9 2.6 0.00 0.00 0.00 91 1008.2
20260902135518 57 95 0.0 1.7 0.00 0.00 0.00 91 1008.1
20260902135004 58 104 0.0 2.6 0.00 0.00 0.00 91 1008.2
20260902134516 58 71 0.0 2.6 0.00 0.00 0.00 91 1008.2
20260902134008 58 80 0.9 5.2 0.00 0.00 0.00 91 1008.2
20260902133508 58 96 2.6 5.2 0.00 0.00 0.00 91 1008.3
20260902133027 58 62 0.9 3.5 0.00 0.00 0.00 91 1008.3
20260902132514 58 128 0.9 3.5 0.00 0.00 0.00 91 1008.3
20260902132013 58 59 1.7 3.5 0.00 0.00 0.00 91 1008.3
20260902131535 58 82 0.9 3.5 0.00 0.00 0.00 91 1008.4
20260902131015 58 109 0.0 5.2 0.00 0.00 0.00 91 1008.4
20260902130514 58 103 2.6 5.2 0.00 0.00 0.00 91 1008.5
20260902130030 58 128 1.7 4.3 0.00 0.00 0.00 91 1008.5
20260902125519 58 83 0.0 5.2 0.00 0.00 0.00 91 1008.6
20260902125020 58 42 0.9 5.2 0.00 0.00 0.00 91 1008.6
20260902124534 58 5 0.9 3.5 0.00 0.00 0.00 91 1008.6
20260902124011 58 66 1.7 5.2 0.00 0.00 0.00 91 1008.6
20260902123507 58 82 0.9 5.2 0.00 0.00 0.00 91 1008.7
20260902123020 58 10 0.9 3.5 0.00 0.00 0.00 90 1008.6
20260902122513 58 75 0.9 3.5 0.00 0.00 0.00 90 1008.6
20260902122011 58 59 0.0 2.6 0.00 0.00 0.00 90 1008.6
20260902121524 58 84 0.9 2.6 0.00 0.00 0.00 90 1008.7
20260902121012 58 94 0.9 3.5 0.00 0.00 0.00 90 1008.7
20260902120515 58 76 1.7 2.6 0.00 0.00 0.00 90 1008.8
20260902120028 58 109 0.0 4.3 0.00 0.00 0.00 90 1008.8
20260902115518 58 111 0.9 4.3 0.00 0.00 0.00 89 1008.8
20260902115014 58 69 1.7 3.5 0.00 0.00 0.00 89 1008.8
20260902114602 58 84 0.0 2.6 0.00 0.00 0.00 89 1008.8
20260902114014 58 91 0.0 4.3 0.00 0.00 0.00 89 1008.8
20260902113502 58 85 0.0 4.3 0.00 0.00 0.00 89 1008.9
20260902113004 58 55 0.9 3.5 0.00 0.00 0.00 89 1008.9
20260902112502 59 36 1.7 3.5 0.00 0.00 0.00 89 1008.9
20260902112005 59 89 1.7 7.0 0.00 0.00 0.00 89 1008.9
20260902111504 59 86 1.7 7.0 0.00 0.00 0.00 88 1009.0
20260902111004 59 48 1.7 5.2 0.00 0.00 0.00 88 1009.0
20260902110503 59 59 0.9 5.2 0.00 0.00 0.00 88 1009.1
20260902110007 59 82 1.7 4.3 0.00 0.00 0.00 88 1009.1
20260902105503 59 88 1.7 9.6 0.00 0.00 0.00 88 1009.1
20260902105005 59 105 1.7 9.6 0.00 0.00 0.00 88 1009.2
20260902104507 59 73 2.6 7.0 0.00 0.00 0.00 88 1009.2
20260902104003 59 97 0.9 7.0 0.00 0.00 0.00 88 1009.3
20260902103502 59 130 1.7 5.2 0.00 0.00 0.00 88 1009.3
20260902103004 59 126 0.9 5.2 0.00 0.00 0.00 88 1009.3
20260902102502 59 112 1.7 3.5 0.00 0.00 0.00 88 1009.3
20260902102002 59 53 0.9 3.5 0.00 0.00 0.00 88 1009.3
20260902101503 60 105 1.7 5.2 0.00 0.00 0.00 88 1009.3
20260902101002 60 110 0.9 5.2 0.00 0.00 0.00 88 1009.4
20260902100502 60 49 0.9 5.2 0.00 0.00 0.00 87 1009.3
20260902100006 60 61 1.7 4.3 0.00 0.00 0.00 87 1009.4
20260902095504 60 113 0.9 3.5 0.00 0.00 0.00 87 1009.4
20260902095002 60 116 0.0 3.5 0.00 0.00 0.00 87 1009.4
20260902094507 60 78 0.9 5.2 0.00 0.00 0.00 87 1009.4
20260902094003 60 114 1.7 5.2 0.00 0.00 0.00 87 1009.5
20260902093503 60 52 1.7 6.1 0.00 0.00 0.00 87 1009.4
20260902093008 60 121 0.9 6.1 0.00 0.00 0.00 87 1009.4
20260902092504 60 97 1.7 3.5 0.00 0.00 0.00 87 1009.4
20260902092003 60 80 0.9 3.5 0.00 0.00 0.00 87 1009.6
20260902091504 60 77 1.7 5.2 0.00 0.00 0.00 87 1009.6
20260902091003 60 53 0.9 5.2 0.00 0.00 0.00 87 1009.7
20260902090503 60 121 1.7 3.5 0.00 0.00 0.00 86 1009.7
20260902090009 60 84 1.7 2.6 0.00 0.00 0.00 86 1009.7
20260902085502 60 74 0.9 2.6 0.00 0.00 0.00 86 1009.7
20260902085002 60 71 0.9 2.6 0.00 0.00 0.00 86 1009.8
20260902084510 60 63 0.0 2.6 0.00 0.00 0.00 86 1009.8
20260902084002 60 55 0.0 2.6 0.00 0.00 0.00 86 1010.0
20260902083503 60 13 0.9 2.6 0.00 0.00 0.00 86 1010.0
20260902083006 60 22 0.9 2.6 0.00 0.00 0.00 86 1010.1
20260902082503 60 58 0.0 2.6 0.00 0.00 0.00 86 1010.0
20260902082005 60 51 0.9 2.6 0.00 0.00 0.00 86 1010.0
20260902081509 60 51 0.9 2.6 0.00 0.00 0.00 86 1010.0
20260902081010 60 51 0.0 3.5 0.00 0.00 0.00 86 1010.1
20260902080504 60 87 0.9 3.5 0.00 0.00 0.00 86 1010.1
20260902080007 60 75 0.9 2.6 0.00 0.00 0.00 86 1010.1
20260902075503 60 85 0.9 6.1 0.00 0.00 0.00 86 1010.1
20260902075004 60 58 0.9 6.1 0.00 0.00 0.00 86 1010.2
20260902074509 60 63 1.7 6.1 0.00 0.00 0.00 87 1010.3
20260902074005 60 129 0.9 5.2 0.00 0.00 0.00 86 1010.3
20260902073503 60 76 0.9 7.8 0.00 0.00 0.00 87 1010.2
20260902073008 60 67 0.9 7.8 0.00 0.00 0.00 87 1010.2
20260902072503 60 81 0.9 4.3 0.00 0.00 0.00 87 1010.3
20260902072003 60 138 0.0 5.2 0.00 0.00 0.00 87 1010.3
20260902071509 60 76 2.6 8.7 0.00 0.00 0.00 87 1010.4
20260902071003 60 117 0.9 8.7 0.00 0.00 0.00 87 1010.4
20260902070504 60 90 1.7 6.1 0.00 0.00 0.00 87 1010.4
20260902070011 60 88 1.7 6.1 0.00 0.00 0.00 87 1010.4
20260902065504 60 98 0.9 3.5 0.00 0.00 0.00 87 1010.4
20260902065004 60 130 1.7 5.2 0.00 0.00 0.00 87 1010.4
20260902064508 60 94 1.7 5.2 0.00 0.00 0.00 87 1010.4
20260902064003 60 88 0.0 4.3 0.00 0.00 0.00 87 1010.4
20260902063503 60 96 1.7 4.3 0.00 0.00 0.00 86 1010.4
20260902063016 60 116 1.7 3.5 0.00 0.00 0.00 86 1010.3
20260902062506 60 87 0.0 3.5 0.00 0.00 0.00 86 1010.4
20260902062004 60 71 0.0 3.5 0.00 0.00 0.00 86 1010.3
20260902061532 60 97 0.0 4.3 0.00 0.00 0.00 86 1010.3
20260902061006 60 143 1.7 4.3 0.00 0.00 0.00 86 1010.3
20260902060503 60 98 0.9 5.2 0.00 0.00 0.00 86 1010.4
20260902060017 60 107 0.9 5.2 0.00 0.00 0.00 86 1010.4
20260902055508 60 109 0.9 6.1 0.00 0.00 0.00 85 1010.5
20260902055004 60 100 0.9 6.1 0.00 0.00 0.00 85 1010.4
20260902054530 60 128 1.7 4.3 0.00 0.00 0.00 85 1010.5
20260902054009 61 79 0.9 6.1 0.00 0.00 0.00 85 1010.5
20260902053507 61 122 2.6 7.0 0.00 0.00 0.00 85 1010.5
20260902053005 61 97 1.7 7.8 0.00 0.00 0.00 85 1010.6
20260902052506 61 77 0.9 7.8 0.00 0.00 0.00 84 1010.7
20260902052003 61 72 1.7 5.2 0.00 0.00 0.00 84 1010.7
20260902051507 62 130 1.7 7.8 0.00 0.00 0.00 83 1010.7
20260902051004 62 92 0.9 7.8 0.00 0.00 0.00 83 1010.7
20260902050504 62 83 1.7 7.0 0.00 0.00 0.00 82 1010.7
20260902050012 63 77 1.7 7.0 0.00 0.00 0.00 81 1010.7
20260902045507 63 71 2.6 7.0 0.00 0.00 0.00 80 1010.7
20260902045007 63 100 1.7 7.0 0.00 0.00 0.00 79 1010.7
20260902044514 63 126 0.9 7.0 0.00 0.00 0.00 78 1010.7
20260902044008 63 120 0.9 7.8 0.00 0.00 0.00 76 1010.7
20260902043508 63 122 2.6 7.8 0.00 0.00 0.00 76 1010.7
20260902043016 63 136 1.7 6.1 0.00 0.00 0.00 78 1010.7
20260902042511 63 115 1.7 7.8 0.00 0.00 0.00 78 1010.7
20260902042007 63 135 1.7 7.8 0.00 0.00 0.00 78 1010.6
20260902041510 63 66 1.7 6.1 0.00 0.00 0.00 77 1010.6
20260902041004 63 113 1.7 6.1 0.00 0.00 0.00 77 1010.6
20260902040510 63 109 1.7 4.3 0.00 0.00 0.00 77 1010.5
20260902040011 63 105 0.9 4.3 0.00 0.00 0.00 77 1010.6
20260902035506 64 111 0.9 4.3 0.00 0.00 0.00 77 1010.6
20260902035006 64 76 0.0 7.0 0.00 0.00 0.00 77 1010.5
20260902034522 64 137 2.6 7.0 0.00 0.00 0.00 76 1010.5
20260902034010 64 55 1.7 7.0 0.00 0.00 0.00 77 1010.4
20260902033509 64 132 1.7 7.0 0.00 0.00 0.00 76 1010.4
20260902033019 64 82 1.7 6.1 0.00 0.00 0.00 76 1010.4
20260902032508 64 86 1.7 6.1 0.00 0.00 0.00 76 1010.3
20260902032012 64 82 1.7 6.1 0.00 0.00 0.00 75 1010.3
20260902031518 64 78 1.7 7.8 0.00 0.00 0.00 75 1010.2
20260902031004 64 115 1.7 7.8 0.00 0.00 0.00 75 1010.2
20260902030507 64 74 1.7 7.0 0.00 0.00 0.00 75 1010.2
20260902030010 65 104 0.9 7.0 0.00 0.00 0.00 75 1010.2
20260902025506 65 67 1.7 5.2 0.00 0.00 0.00 74 1010.1
20260902025008 65 96 1.7 5.2 0.00 0.00 0.00 74 1010.2
20260902024514 65 124 2.6 6.1 0.00 0.00 0.00 73 1010.1
20260902024007 65 82 2.6 6.1 0.00 0.00 0.00 72 1010.0
20260902023508 65 124 1.7 6.1 0.00 0.00 0.00 71 1010.1
20260902023023 65 134 0.9 6.1 0.00 0.00 0.00 71 1010.0
20260902022510 65 115 1.7 6.1 0.00 0.00 0.00 71 1010.1
20260902022008 66 63 1.7 7.8 0.00 0.00 0.00 71 1010.0
20260902021519 66 105 1.7 7.8 0.00 0.00 0.00 71 1010.0
20260902021010 66 155 1.7 6.1 0.00 0.00 0.00 71 1010.1
20260902020512 66 128 1.7 5.2 0.00 0.00 0.00 70 1010.1
20260902020024 66 146 0.9 5.2 0.00 0.00 0.00 70 1010.1
20260902015510 66 113 0.9 5.2 0.00 0.00 0.00 71 1010.1
20260902015006 67 117 1.7 5.2 0.00 0.00 0.00 71 1010.1
20260902014512 67 93 1.7 5.2 0.00 0.00 0.00 70 1010.1
20260902014006 67 109 0.9 5.2 0.00 0.00 0.00 69 1010.1
20260902013510 67 138 0.9 3.5 0.00 0.00 0.00 69 1010.1
20260902013017 67 139 0.9 5.2 0.00 0.00 0.00 68 1010.1
20260902012511 67 129 1.7 5.2 0.00 0.00 0.00 69 1010.1
20260902012010 67 112 0.9 5.2 0.00 0.00 0.00 70 1010.1
20260902011525 67 138 1.7 6.1 0.00 0.00 0.00 70 1010.1
20260902011013 67 67 1.7 6.1 0.00 0.00 0.00 70 1010.1
20260902010511 67 138 1.7 7.0 0.00 0.00 0.00 70 1010.1
20260902010032 67 119 1.7 8.7 0.00 0.00 0.00 70 1010.0
20260902005512 67 123 2.6 8.7 0.00 0.00 0.00 70 1009.9
20260902005013 67 115 1.7 7.8 0.00 0.00 0.00 69 1010.0
20260902004513 67 182 2.6 7.0 0.00 0.00 0.00 69 1010.0
20260902004007 67 70 0.9 6.1 0.00 0.00 0.00 68 1010.0
20260902003505 67 153 1.7 5.2 0.00 0.00 0.00 68 1010.1
20260902003018 67 178 1.7 6.1 0.00 0.00 0.00 68 1010.0
20260902002512 67 109 1.7 6.1 0.00 0.00 0.00 68 1010.0
20260902002010 67 142 1.7 7.0 0.00 0.00 0.00 68 1009.9
20260902001541 67 136 2.6 7.8 0.00 0.00 0.00 68 1009.9
20260902001009 67 103 3.5 7.8 0.00 0.00 0.00 67 1009.9
20260902000513 68 180 2.6 7.8 0.00 0.00 0.00 66 1009.9
20260902000037 68 115 2.6 7.8 0.00 0.00 0.00 67 1009.9
20260901235514 68 176 2.6 7.8 0.00 0.00 0.00 67 1009.9
20260901235012 68 159 1.7 6.1 0.00 0.00 0.00 68 1009.9
20260901234525 68 50 0.9 8.7 0.00 0.00 0.00 69 1009.9
20260901234014 68 92 3.5 8.7 0.00 0.00 0.00 69 1010.0
20260901233514 68 96 1.7 5.2 0.00 0.00 0.00 69 1010.0
20260901233013 67 128 1.7 4.3 0.00 0.00 0.00 70 1010.0
20260901232508 67 120 0.9 4.3 0.00 0.00 0.00 70 1010.0
20260901232010 67 118 1.7 4.3 0.00 0.00 0.00 70 1010.0
20260901231525 67 100 1.7 3.5 0.00 0.00 0.00 70 1010.1
20260901231011 67 159 1.7 7.0 0.00 0.00 0.00 69 1010.0
20260901230515 68 179 2.6 6.1 0.00 0.00 0.00 69 1010.0
20260901230028 68 130 0.9 6.1 0.00 0.00 0.00 69 1010.0
20260901225513 68 121 2.6 6.1 0.00 0.00 0.00 68 1010.0
20260901225016 68 86 0.9 6.1 0.00 0.00 0.00 68 1010.0
20260901224530 68 141 1.7 8.7 0.00 0.00 0.00 68 1010.0
20260901224015 68 133 3.5 8.7 0.00 0.00 0.00 68 1009.9
20260901223513 68 134 1.7 7.8 0.00 0.00 0.00 68 1009.9
20260901223031 68 136 0.9 10.4 0.00 0.00 0.00 68 1009.9
20260901222515 68 118 1.7 10.4 0.00 0.00 0.00 67 1009.9
20260901222008 68 158 3.5 9.6 0.00 0.00 0.00 67 1010.0
20260901221520 68 146 0.9 7.8 0.00 0.00 0.00 67 1009.9
20260901221010 68 80 1.7 7.8 0.00 0.00 0.00 67 1009.9
20260901220509 69 60 2.6 6.1 0.00 0.00 0.00 67 1009.9
20260901220036 69 136 2.6 6.1 0.00 0.00 0.00 67 1009.9
20260901215514 69 139 1.7 7.8 0.00 0.00 0.00 67 1009.9
20260901215014 69 115 1.7 7.8 0.00 0.00 0.00 68 1009.9
20260901214528 68 95 1.7 6.1 0.00 0.00 0.00 68 1009.9
20260901214015 69 129 0.9 6.1 0.00 0.00 0.00 68 1009.9
20260901213513 69 128 1.7 7.0 0.00 0.00 0.00 67 1009.9
20260901213032 69 110 1.7 7.8 0.00 0.00 0.00 67 1009.9
20260901212514 69 48 2.6 8.7 0.00 0.00 0.00 67 1009.9
20260901212015 69 90 1.7 8.7 0.00 0.00 0.00 67 1010.0
20260901211536 69 86 1.7 7.0 0.00 0.00 0.00 66 1009.9
20260901211019 69 92 0.9 7.0 0.00 0.00 0.00 66 1010.0
20260901210512 69 70 2.6 5.2 0.00 0.00 0.00 65 1010.1
20260901210022 69 104 1.7 6.1 0.00 0.00 0.00 64 1010.1
20260901205516 69 144 0.9 6.1 0.00 0.00 0.00 65 1010.2
20260901205014 69 107 1.7 7.8 0.00 0.00 0.00 66 1010.2
20260901204527 69 74 4.3 7.8 0.00 0.00 0.00 65 1010.2
20260901204014 69 119 1.7 6.1 0.00 0.00 0.00 66 1010.3
20260901203515 69 69 1.7 5.2 0.00 0.00 0.00 67 1010.3
20260901203036 69 106 1.7 5.2 0.00 0.00 0.00 66 1010.3
20260901202515 69 118 2.6 5.2 0.00 0.00 0.00 67 1010.4
20260901202004 68 146 1.7 6.1 0.00 0.00 0.00 68 1010.3
20260901201514 68 148 0.9 6.1 0.00 0.00 0.00 68 1010.5
20260901201006 68 130 2.6 6.1 0.00 0.00 0.00 67 1010.6
20260901200510 68 34 1.7 5.2 0.00 0.00 0.00 69 1010.7
20260901200023 68 140 2.6 4.3 0.00 0.00 0.00 69 1010.7
20260901195512 68 137 1.7 3.5 0.00 0.00 0.00 69 1010.8
20260901195016 68 80 0.9 3.5 0.00 0.00 0.00 69 1010.7